Location: Cosy Dell
(34.2789°N, 117.4537°W)
Time: 12:23:29
(UTC+00:00)

BREEZE-M DEB (TANK) - Pass Details

Date: 14 July 2020
Orbit: 364 x 18683 km, 52.5° (Epoch: 08 August)

Event Time Altitude Azimuth Distance (km) Brightness Sun altitude
Exits shadow 09:52:53 56° 248° (WSW) 1,358 4.4 -27.6°
Maximum altitude 09:54:22 79° 320° (NW) 1,425 4.7 -27.4°
Drops below altitude 10° 10:16:11 10° 48° (NE) 9,336 10.0 -24.9°
Sets 10:32:08 0° 52° (NE) 13,889 11.3 -22.9°
